Regional Weather Roundup
Issued by NWS Grand Forks, ND

Home | Current Version | Previous Version | Graphics & Text | Print | Product List | Glossary On
Versions: 1 2 3 4 5 6 7 8 9 10 11 12 13 14 15 16 17 18 19 20 21 22 23 24 25 26 27 28 29 30 31 32 33 34 35 36 37 38 39 40 41 42 43 44 45 46 47 48 49 50
000
ASUS43 KFGF 210310
RWRFGF
PRAIRIE TO PINES  WEATHER ROUNDUP
NATIONAL WEATHER SERVICE EASTERN NORTH DAKOTA/GRAND FORKS ND
1000 PM CDT SUN AUG 20 2017

 **SATELLITE DATA USED TO AUGMENT SKY COVER AT AUTOMATED STATIONS**
 *****  WEATHER ACROSS EASTERN NORTH DAKOTA  *****

CITY           SKY/WX    TMP DP  RH WIND       PRES   REMARKS
GRAND FORKS    FAIR      57  52  83 SW5       30.00R HAZE
GRAND FRKS AFB FAIR      55  50  83 CALM      30.01R
DEVILS LAKE    FAIR      59  50  72 S5        30.03R
FARGO          FAIR      65  53  65 SW5       30.02R
WAHPETON ARPT  FAIR      59  55  88 CALM      30.04R
$$

 ***** WEATHER ACROSS CENTRAL AND WESTERN NORTH DAKOTA  *****

CITY           SKY/WX    TMP DP  RH WIND       PRES   REMARKS
BISMARCK       MOCLDY    60  56  86 SE6       30.04R
MINOT          FAIR      65  46  50 SE3       30.00R
JAMESTOWN      MOCLDY    64  54  69 SW3       30.04R
MINOT AFB      CLOUDY    63  46  54 S5        29.99R
GARRISON         N/A     60  51  72 S6        30.01S
WILLISTON      FAIR      69  47  45 S9        29.98R
DICKINSON      FAIR      56  45  66 SE9       30.01R
HETTINGER      FAIR      60  46  59 E12       30.04R
$$

 *****  OTHER AIRPORT OBSERVATIONS IN OUR AREA  *****

CITY           SKY/WX    TMP DP  RH WIND       PRES   REMARKS
WALHALLA       FAIR      61  61 100 SW3       29.99R
GRAFTON AIRPOR FAIR      59  52  77 SW5       30.01R
VALLEY CITY AR   N/A     63  54  72 CALM      30.05S
CANDO          FAIR      55  55 100 CALM      30.04R
CAVALIER APRT  FAIR      57  50  77 S5        29.99R
GWINNER        PTCLDY    63  59  88 CALM      30.05R
SHEYENNE NWR     N/A     60  58  92 CALM      29.95S
ROLLA          FAIR      52  52 100 S5        30.03R
 ***** THE ABOVE OBSERVATIONS ARE NON NWS ARE NOT QUALITY
       CONTROLLED AND MAY MIS-REPORT RAIN FOR SNOW...
$$

  *****  WEATHER ACROSS NORTHERN MINNESOTA  *****

CITY           SKY/WX    TMP DP  RH WIND       PRES   REMARKS
FLAG ISLAND    FAIR      66  46  48 CALM      29.97R HAZE
WARROAD        FAIR      55  52  88 CALM      30.00R
ROSEAU         FAIR      57  48  72 S3        30.00R
HALLOCK        FAIR      59  46  63 SW3       29.99R
THF RVR FALLS  FAIR      60  47  61 CALM      30.03R
BAUDETTE       FAIR      58  48  69 W3        29.99R
WASKISH        FAIR      68  52  56 W6        30.01R
CROOKSTON      FAIR      63  46  55 CALM      30.02R
STEPHEN NDAWN    N/A     59  48  67 SW3         N/A
GREENBUSH NDAW   N/A     54  48  82 W2          N/A
$$
  *****  WEATHER ACROSS CENTRAL AND WEST MINNESOTA  *****

CITY           SKY/WX    TMP DP  RH WIND       PRES   REMARKS
FOSSTON        FAIR      54  46  76 CALM      30.04R
BEMIDJI        FAIR      57  50  77 CALM      30.03R
PARK RAPIDS    FAIR      60  55  83 CALM      30.04R
ELBOW LAKE     FAIR      63  58  83 CALM      30.04S
WADENA         FAIR      55  55 100 NW3       30.05R
DETROIT LAKES  FAIR      61  54  77 CALM      30.06R
MOORHEAD       FAIR      64  54  68 SW3       30.03S
FERGUS FALLS   FAIR      63  57  82 CALM      30.04R
MORRIS MN      FAIR      64  61  88 N5        30.03R
STAPLES        FAIR      61  54  77 CALM      30.05R
$$
  *****  WEATHER ELSEWHERE ACROSS MINNESOTA  *****

CITY           SKY/WX    TMP DP  RH WIND       PRES   REMARKS
DULUTH         FAIR      60  55  83 W6        30.01S
INTRNTL FALLS  FAIR      50  48  93 CALM      29.99R
ELY            FAIR      57  54  88 CALM      30.01R
CLOQUET        FAIR      59  54  82 W3        30.02S
WHEATON        FAIR      63  61  94 CALM      30.06R
BRAINERD       FAIR      60  57  89 CALM      30.04R
HIBBING        FAIR      55  53  93 CALM      30.02R
ALEXANDRIA     FAIR      63  59  87 N3        30.06R
SAINT CLOUD    FAIR      63  62  97 CALM      30.02R
MINNEAPOLIS    FAIR      74  64  71 N6        30.00R
$$

  *****  WEATHER ACROSS SOUTH DAKOTA  *****

CITY           SKY/WX    TMP DP  RH WIND       PRES   REMARKS
SIOUX FALLS    MOCLDY    71  64  78 E8        30.01R
BROOKINGS      FAIR      65  58  78 E6        30.04R
WATERTOWN      CLOUDY    58  55  90 N5        30.05R
HURON          FAIR      64  58  80 NE8       30.02R
SISSETON         N/A     62  60  93 N3        30.02S
ABERDEEN       FAIR      58  56  93 N7        30.04S
MITCHELL       CLOUDY    70  59  68 E8        30.00R
PIERRE         FAIR      63  49  60 E8        30.01R
MOBRIDGE       CLOUDY    63  54  72 E9        30.02R
RAPID CITY     FAIR      70  53  54 SE13      30.01R
$$

  *****  SOME WEATHER IN NEARBY STATES *****

CITY           SKY/WX    TMP DP  RH WIND       PRES   REMARKS
GLASGOW MT     FAIR      70  38  31 NW8       29.92R
GREAT FALLS MT FAIR      68  27  21 N3        30.02R
CHEYENNE WY    FAIR      69  49  48 S6        30.17R
SCOTTSBLUFF NE FAIR      76  62  62 E12       30.00S
OMAHA NE       FAIR      75  67  76 SE8       29.97R
DES MOINES IA  MOCLDY    73  66  78 S5        30.02R
DAVENPORT IA   FAIR      70  68  93 E7        30.02R
CHICAGO IL     CLOUDY    80  70  71 CALM      30.03S
EAU CLAIRE WI  CLOUDY    74  68  81 S3        30.00R
LA CROSSE WI   FAIR      79  67  66 S10       30.01R
$$

  *****  SOME NATIONAL WEATHER *****

CITY           SKY/WX    TMP DP  RH WIND       PRES   REMARKS
LA GUARDIA NY  FAIR      79  61  53 NW8       30.14R
RALEIGH NC     FAIR      81  70  69 SE5       30.18R
ATLANTA GA     FAIR      83  68  60 SE6       30.14R
NEW ORLEANS LA FAIR      84  75  74 SE6       30.05R HX  92
OKLAHOMA CITY  FAIR      79  71  76 S8        30.02R
ALBUQUERQUE NM CLOUDY    73  49  42 NE15      30.18R
SALT LAKE CITY FAIR      85  40  20 CALM      29.96R
LOS ANGELES CA FAIR      67  61  81 W10       29.91R
BOISE ID       FAIR      76  35  22 NW6       29.97R
SEATTLE WA     FAIR      71  53  52 NE12      30.11R
$$

*** WEATHER ACROSS MANITOBA...SASKATCHEWAN AND ONTARIO ***
                ***ONTARIO***

CITY           SKY/WX    TMP DP  RH WIND       PRES   REMARKS
GERALDTON      MOCLDY    61  61 100 SW5       29.86R
THUNDER BAY    MOCLDY    64  55  72 SW5       29.91R
SIOUX LOOKOUT  PTCLDY    57  48  72 W5        29.93R
TORONTO        PTCLDY    70  61  73 W6        30.09S
BIG TROUT LK   CLEAR     61  50  67 W8        29.69S
PICKLE LAKE    NOT AVBL
DRYDEN         CLEAR     61  46  59 SW7       29.95R
KENORA         NOT AVBL
$$
                *** MANITOBA***

CITY           SKY/WX    TMP DP  RH WIND       PRES   REMARKS
BRANDON        MOCLDY    59  50  72 W8        29.99R
DAUPHIN        MOCLDY    61  45  55 SW10      29.93R
ISLAND LAKE    MOCLDY    63  50  63 SW10      29.77R
PILOT MOUND    NOT AVBL
THE PAS        MOCLDY    63  46  55 SW6       29.80R
THOMPSON       MOCLDY    54  48  82 W7        29.70R
WINNIPEG       PTCLDY    63  45  51 SW8       29.95R
LYNN LAKE      LGT RAIN  54  50  87 MISG      29.69F
CHURCHILL      LGT RAIN  52  52 100 E12       29.58R FOG
GILLAM         CLOUDY    64  50  59 W14G23    29.60R
$$
                ***SASKATCHEWAN***

CITY           SKY/WX    TMP DP  RH WIND       PRES   REMARKS
ESTEVAN        CLOUDY    63  39  42 E9        29.96S
KINDERSLEY     CLOUDY    59  43  55 NE5       29.99R
LLOYDMINSTER   MOCLDY    54  45  71 W9        29.95R
PRINCE ALBERT  MOCLDY    55  45  67 W5        29.90R
REGINA         MOCLDY    64  36  34 SE13G20   29.92R
YORKTON        MOCLDY    59  46  63 SW8       29.95R
N. BATTLEFORD  CLEAR     55  45  67 W9        29.96R
LA RONGE       PTCLDY    59  45  58 SW7       29.81R
SASKATOON      MOCLDY    57  45  62 W7        29.95R
SWIFT CURRENT  MOCLDY    63  36  36 NE15G21   29.93R
$$
NOTE: THESE ARE AUTOMATED STATIONS WITH LIMITED QUALITY CONTROL
      "FAIR" INDICATES FEW OR NO CLOUDS BELOW 12,000 FEET WITH NO
      SIGNIFICANT WEATHER AND/OR OBSTRUCTIONS TO VISIBILITY.
      SKY/WX - SKY CONDITION AND SIGNIFICANT WEATHER.
      TMP - AIR TEMPERATURE.    DP   - DEWPOINT TEMPERATURE.
      RH  - RELATIVE HUMIDITY.  PRES - PRESSURE.
      HX  - HEAT INDEX.         WCI  - WIND CHILL INDEX.
$




USA.gov is the U.S. government's official web portal to all federal, state and local government web resources and services.